TimeMDT,TemperatureF,Dew PointF,Humidity,Sea Level PressureIn,VisibilityMPH,Wind Direction,Wind SpeedMPH,Gust SpeedMPH,PrecipitationIn,Events,Conditions,WindDirDegrees,DateUTC
12:52 AM,61.0,57.0,87,29.95,10.0,NW,9.2,-,N/A,,Clear,320,2013-09-10 06:52:00
1:52 AM,60.1,55.9,86,29.96,10.0,NW,9.2,-,N/A,,Clear,310,2013-09-10 07:52:00
2:52 AM,59.0,55.0,87,29.97,10.0,WNW,8.1,-,N/A,,Clear,300,2013-09-10 08:52:00
3:52 AM,57.9,52.0,81,29.98,10.0,NW,9.2,-,N/A,,Clear,310,2013-09-10 09:52:00
4:52 AM,55.0,50.0,83,29.99,10.0,NW,6.9,-,N/A,,Clear,320,2013-09-10 10:52:00
5:52 AM,55.9,48.9,77,30.01,10.0,NW,3.5,-,N/A,,Clear,310,2013-09-10 11:52:00
6:52 AM,57.9,48.9,72,30.04,10.0,Calm,Calm,-,N/A,,Clear,0,2013-09-10 12:52:00
7:52 AM,62.1,52.0,70,30.04,10.0,WNW,5.8,-,N/A,,Clear,290,2013-09-10 13:52:00
8:52 AM,66.9,52.0,59,30.05,10.0,NNW,13.8,-,N/A,,Clear,330,2013-09-10 14:52:00
9:52 AM,70.0,53.1,55,30.06,10.0,NNW,17.3,23.0,N/A,,Clear,330,2013-09-10 15:52:00
10:52 AM,70.0,52.0,53,30.08,10.0,NNW,11.5,-,N/A,,Clear,340,2013-09-10 16:52:00
11:52 AM,73.0,53.1,49,30.08,10.0,North,15.0,-,N/A,,Clear,10,2013-09-10 17:52:00
12:52 PM,75.9,51.1,42,30.06,10.0,North,11.5,18.4,N/A,,Clear,350,2013-09-10 18:52:00
1:52 PM,75.0,51.1,43,30.06,10.0,Variable,5.8,-,N/A,,Clear,0,2013-09-10 19:52:00
2:52 PM,75.9,50.0,40,30.05,10.0,Variable,6.9,-,N/A,,Clear,0,2013-09-10 20:52:00
3:52 PM,77.0,51.1,40,30.04,10.0,Variable,3.5,-,N/A,,Clear,0,2013-09-10 21:52:00
4:52 PM,75.0,52.0,44,30.06,10.0,WSW,3.5,-,N/A,,Overcast,250,2013-09-10 22:52:00
5:52 PM,73.9,52.0,46,30.07,10.0,NNE,3.5,-,N/A,,Mostly Cloudy,20,2013-09-10 23:52:00
6:52 PM,70.0,55.0,59,30.08,10.0,NE,3.5,-,N/A,,Mostly Cloudy,40,2013-09-11 00:52:00
7:52 PM,69.1,52.0,54,30.09,10.0,SSW,3.5,-,N/A,,Scattered Clouds,200,2013-09-11 01:52:00
8:52 PM,61.0,55.0,81,30.11,10.0,Calm,Calm,-,N/A,,Clear,0,2013-09-11 02:52:00
9:52 PM,61.0,54.0,78,30.11,10.0,Calm,Calm,-,N/A,,Clear,0,2013-09-11 03:52:00
10:52 PM,57.9,53.1,84,30.12,10.0,Calm,Calm,-,N/A,,Clear,0,2013-09-11 04:52:00
11:52 PM,55.9,52.0,87,30.13,10.0,Calm,Calm,-,N/A,,Clear,0,2013-09-11 05:52:00